Regional Weather Roundup
Issued by NWS Upton, NY

Current Version | Previous Version | Text Only | Print | Product List | Glossary On
Versions: 1 2 3 4 5 6 7 8 9 10 11 12 13 14 15 16 17 18 19 20 21 22 23 24 25 26 27
000 ASUS41 KOKX 170808 RWROKX REGIONAL WEATHER ROUNDUP NATIONAL WEATHER SERVICE NEW YORK NY 400 AM EDT THU AUG 17 2017 NOTE: "FAIR" INDICATES FEW OR NO CLOUDS BELOW 12,000 FEET WITH NO SIGNIFICANT WEATHER AND/OR OBSTRUCTIONS TO VISIBILITY. NYZ071-072-176-178-NJZ106-104-170900- NEW YORK CITY METRO AREA CITY SKY/WX TMP DP RH WIND PRES REMARKS Central Park CLOUDY 73 55 53 NE9 30.05F Bronx Bot Gard N/A 70 55 60 S1 30.05S LaGuardia APRT MOCLDY 72 60 66 NE6 30.02S Kennedy INTL CLOUDY 72 58 61 N9 30.03S Breezy Point N/A 72 N/A N/A NE8 N/A Newark/Liberty MOCLDY 68 61 78 N10 30.02F Teterboro MOCLDY 70 63 78 N3 30.01F $$ NYZ177-179-078>081-170900- LONG ISLAND NEW YORK CITY SKY/WX TMP DP RH WIND PRES REMARKS Jones Beach N/A 72 N/A N/A N10 N/A Matinecock PT N/A 70 N/A N/A NE8 N/A Farmingdale PTCLDY 68 59 73 N5 30.02S MacArthur/ISP CLEAR 68 60 75 N7 30.02R Shirley MOCLDY 69 61 75 N3 30.02S Mt Sinai Harb N/A N/A N/A N/A N9 N/A Westhampton PTCLDY 62 59 90 NW3 30.03S East Hampton FAIR 61 59 94 CALM 30.02R Montauk N/A 68 61 78 NE3 30.03S $$ NYZ052-065-067-170900- HUDSON VALLEY CITY SKY/WX TMP DP RH WIND PRES REMARKS White Plains PTCLDY 66 56 70 CALM 30.03S Larchmont Harb N/A 70 N/A N/A N3 N/A Croton On Huds N/A 66 N/A N/A MISG N/A Newburgh CLEAR 63 61 94 CALM 30.06F Montgomery MOCLDY 59 57 93 CALM 30.05S Poughkeepsie CLEAR 58 56 93 CALM 30.04F Albany PTCLDY 55 52 89 CALM 30.07S $$ NJZ001-105-106-008-010-013-015-019>022-104-170900- NEW JERSEY CITY SKY/WX TMP DP RH WIND PRES REMARKS Newark/Liberty MOCLDY 68 61 78 N10 30.02F Teterboro MOCLDY 70 63 78 N3 30.01F Caldwell PTCLDY 66 64 93 CALM 30.04S Somerville MOCLDY 65 64 97 NW3 30.01S Linden FAIR 73 58 59 NE6 30.02S Perth Amboy N/A 73 N/A N/A NE6 N/A Sussex MOCLDY 61 61 100 CALM 30.05F Andover N/A 62 61 96 CALM 30.05F Trenton CLEAR 66 64 93 N5 30.02S Millville CLEAR 70 69 97 CALM 30.01S FOG Atlantic City FOG 69 69 100 CALM 30.01S VSB 1/4 Wrightstown CLEAR 66 64 94 CALM 29.99S FOG Toms River PTCLDY 65 64 97 CALM 30.02S FOG Belmar CLEAR 68 66 93 CALM 30.03S $$ PAZ047>061-062-071-170900- EASTERN PENNSYLVANIA CITY SKY/WX TMP DP RH WIND PRES REMARKS Philadelphia PTCLDY 72 69 90 CALM 30.02S Allentown PTCLDY 65 61 87 CALM 30.04S Scranton CLEAR 61 58 90 E5 30.07F $$ CTZ002-004>006-009-010-012-RIZ004-006-007-MAZ004-011-015-170900- SOUTHERN NEW ENGLAND IN CT CITY SKY/WX TMP DP RH WIND PRES REMARKS Bradley INTL PTCLDY 59 56 89 N3 30.04S Hartford CLEAR 64 58 80 N6 30.03S Danbury CLEAR 60 59 96 CALM 30.06S Wtrbury/Oxford PTCLDY 59 55 87 CALM 30.06S Norwalk Harbor N/A 68 N/A N/A N3 N/A Bridgeport CLEAR 69 56 62 N6 30.03S Meriden CLEAR 62 58 86 CALM 30.03S New Haven PTCLDY 66 57 72 N6 30.03S Chester NOT AVBL Groton CLOUDY 66 57 72 N7 30.01S Wilimantic PTCLDY 59 58 96 N6 30.04S IN RI CITY SKY/WX TMP DP RH WIND PRES REMARKS Providence PTCLDY 65 51 60 N7 30.04R Block Island MOCLDY 66 57 72 N5 30.03R Westerly MOCLDY 65 55 70 N3 30.03R IN MA CITY SKY/WX TMP DP RH WIND PRES REMARKS Boston CLEAR 65 46 50 NW8 30.04R Worcester CLEAR 61 44 53 N5 30.06R Westfield CLEAR 57 56 96 N3 30.05S Provincetown PTCLDY 66 57 72 N8 30.02S Nantucket PTCLDY 64 60 87 N8 30.00S $$ ANZ330-335-338-340-345-350-353-355-170900- COASTAL MARINE OBSERVATIONS STATION/POSITION TIME SKY/WX TEMP WIND PRES VSBY WAVE AIR SEA DIR/SP/G HT/PER (UTC) (F) (DEG/KT/KT) (MB) (MI) (FT/S) NY HARB ENTRANCE 0750 74 75 20/ 16/ 19 1015.4 3/10 GREAT SOUTH BAY 0730 73 78 10/ 8/ 10 N/A 23 SSW MONTAUK P 0750 72 71 1016.4 3/ 9 15 E BARNEGAT LI 0730 76 N/A 3/ 9 HUDSON CANYON 0750 74 74 280/ 4/ 6 1015.3 2/10 KINGS POINT 0736 72 74 60/ 6/ 8 1016.6 EXECUTION ROCKS NOT AVBL WESTERN LI SOUND NOT AVBL CENTRAL LI SOUND NOT AVBL EASTERN LI SOUND NOT AVBL ROBBINS REEF 0736 10/ 10/ 13 1017.1 $$ >>>>>>>>>>>>>>>>>>>>>>>>>>>> KEY <<<<<<<<<<<<<<<<<<<<<<<<<<< > < > SKY/WX - Sky Condition/Present Weather < > TMP - Temperature in Fahrenheit < > DP - Dew Point in Fahrenheit < > RH - Relative Humidity in Percent < > WIND - Direction (from) and Speed in MPH < > PRES - Mean Sea Level Pressure (inches of Hg) < > WCI - Wind Chill Index < > VSB - VISIBILITY IN MILES < > HX - HEAT INDEX < > TC - TEMPERATURE IN CELSIUS < > VRB - VARIABLE WIND DIRECTION < > < >>>>>>>>>>>>>>>>>>>>>>>>>>>> KEY <<<<<<<<<<<<<<<<<<<<<<<<<<<

USA.gov is the U.S. government's official web portal to all federal, state and local government web resources and services.